User: anonymous   Login
Location: Dompnac
(44.5644°N, 4.1026°E)
Time: 19:59:45
(UTC+00:00)
Language:

MetOp-A - Orbit

View from above orbital plane
View from above orbital plane
View from above satellite
View from above satellite

Ground track
Ground track

The orbit data is extracted from the following two-line orbital elements,

1 29499U 06044A   21170.52580823 -.00000001  00000-0  18725-4 0  9990
2 29499  98.4712 209.7132 0000730  87.6983  47.2494 14.21501904761035
Epoch (UTC): 19 June 2021 12:37:09
Eccentricity: 0.0000730
inclination: 98.4712°
perigee height: 820 km
apogee height: 821 km
right ascension of ascending node: 209.7132°
argument of perigee: 87.6983°
revolutions per day: 14.21501904
mean anomaly at epoch: 47.2494°
orbit number at epoch: 76103

The dashed part of the orbit path shows where the satellite is in the earth's shadow,  

DLR